This is the latest recevied weather packets stored in our database for station/object YC0ACE-13. If no packets are shown the sender has not sent any weather packets the latest 10 day(s).
| Time | Temp. | Humidity | Pressure | Rain* | Wind** | Luminosity | Snow |
|---|---|---|---|---|---|---|---|
| 1777949725 | 29.44° C | 76% | 1016.3 hPa | 0 mm | - | 199 W/m² | - |
| 1777949424 | 30° C | 75% | 1016.6 hPa | 0 mm | - | 233 W/m² | - |
| 1777949124 | 30° C | 75% | 1016.6 hPa | 0 mm | - | 262 W/m² | - |
| 1777948824 | 30° C | 73% | 1016.6 hPa | 0 mm | - | 265 W/m² | - |
| 1777948525 | 29.44° C | 74% | 1016.6 hPa | 0 mm | - | 257 W/m² | - |
| 1777948225 | 29.44° C | 75% | 1016.3 hPa | 0 mm | - | 241 W/m² | - |
| 1777947925 | 29.44° C | 74% | 1016.6 hPa | 0 mm | - | 227 W/m² | - |
| 1777947625 | 29.44° C | 75% | 1016.6 hPa | 0 mm | - | 223 W/m² | - |
| 1777947325 | 29.44° C | 75% | 1016.6 hPa | 0 mm | - | 221 W/m² | - |
| 1777947024 | 28.89° C | 76% | 1016.6 hPa | 0 mm | - | 213 W/m² | - |
| 1777946725 | 28.89° C | 78% | 1016.9 hPa | 0 mm | - | 219 W/m² | - |
| 1777946424 | 28.89° C | 78% | 1016.6 hPa | 0 mm | - | 215 W/m² | - |
| 1777946125 | 28.89° C | 80% | 1016.6 hPa | 0 mm | - | 218 W/m² | - |
| 1777945825 | 28.89° C | 79% | 1016.9 hPa | 0 mm | - | 213 W/m² | - |
| 1777945525 | 28.89° C | 80% | 1016.3 hPa | 0 mm | - | 220 W/m² | - |
| 1777945225 | 28.89° C | 80% | 1016.3 hPa | 0 mm | - | 215 W/m² | - |
| 1777944925 | 28.89° C | 81% | 1016.6 hPa | 0 mm | - | 215 W/m² | - |
| 1777944624 | 28.89° C | 80% | 1016.3 hPa | 0 mm | - | 210 W/m² | - |
| 1777944324 | 28.89° C | 82% | 1016.3 hPa | 0 mm | - | 212 W/m² | - |
| 1777944024 | 28.89° C | 82% | 1016.3 hPa | 0 mm | - | 205 W/m² | - |
| 1777943728 | 28.33° C | 83% | 1016.3 hPa | 0 mm | - | 214 W/m² | - |
| 1777943424 | 28.33° C | 84% | 1016.3 hPa | 0 mm | - | 234 W/m² | - |
| 1777943124 | 27.78° C | 84% | 1016.3 hPa | 0 mm | - | 224 W/m² | - |
| 1777942824 | 27.78° C | 85% | 1015.9 hPa | 0 mm | - | 247 W/m² | - |
| 1777942525 | 27.78° C | 85% | 1016.3 hPa | 0 mm | - | 191 W/m² | - |
* Rain latest hour (hover to see other rain measurements)
** Current wind speed in m/s (hover to see current wind gust speed)